sat.trackr.live / text

‹ back to catalog

VIASAT-3 F1

NORAD 56370 · 2023-060A

PAYLOAD ACTIVE UNKNOWN

§ Identity

Operator
Country
US
Launch date
2023-05-01
Launch site
AFETR
Launch vehicle
Mass (kg)
RCS (m²)

Purposes: comms

External: N2YO · Heavens-Above · Gunter

§ Orbital elements

Epoch: 2026-09-19T14:50:18.589344Z

Period
1,436.13 min
Inclination
0.0203°
Eccentricity
0.0000672
Mean motion
1.00269189 rev/d
Perigee alt
35,784.5 km
Apogee alt
35,790.2 km
Semi-major
42,165.5 km
B*
0.0000e+0
RAAN
191.9020°
Arg perigee
352.2194°
Mean anomaly
308.0209°
Rev number
1,238

§ Raw data

VIASAT-3 F11 56370U 23060A   26262.61827071  .00000000  00000+0  00000+0 0  99902 56370   0.0203 191.9020 0000672 352.2194 308.0209  1.00269189 12383

JSON: /api/v1/satellites/56370 · /tle

For live sub-satellite position, see the globe view (requires WebGL).

§ Visibility from observer

Set your observer location to see the next 7 days of passes ≥ 10°. The values pass through the URL so the page stays shareable.

No JS? Fill the form by hand. The geolocation button needs JavaScript.